Content
SEND FEEDBACK

Daily
Averages
Monthly
Summary
Canada

QUEBEC CITY, QUEBEC


Home > North America > Canada > Quebec
Elevation: 239 feet     Latitude: 46 48N     Longitude: 071 23W

WEATHER
 
SELECT A DAY
Number of Records: 196,112;   Date Range: 6/30/96 - 10/29/14
 
SHARE

PRINT THIS DATA

[ ← Previous Day ]
WEATHER ALMANAC - FEBRUARY 13, 2014
[ Next Day → ]
[ °C ]   °F
Weather ElementAverageHighLow
Temperature11.6 °F25 °F (10:00 pm)-9 °F (7:00 am)
Dewpoint-0.4 °F12.2 °F (11:27 pm)-13 °F (7:00 am)
Humidity57 %78 % (5:00 am)23 % (1:00 pm)
Barometer30.10 in30.28 in (1:00 am)29.68 in (11:27 pm)
Wind Speed6.4 mph24.2 mph (11:27 pm)
Wind Gust32.2 mph (11:00 pm)
Weather ElementAverage
Visibility15.3 mi
Wind DirectionESE (105.5 °)

Weather ElementTotal
Precipitation---
Heating Degree Days57 (Base 65)
Averaged from 31 records on February 13, 2014
WEATHER CONDITIONS BREAKOUT
WIND DIRECTION BREAKOUT
WEATHER BY HOUR - FEBRUARY 13, 2014
[ °C ]   °F
Local TimeTemperatureDewpointHumidityBarometerVisibilityWind DirectionWind SpeedGust SpeedPrecipitationEventsConditions
1:00 AM2.0 °F-6.0 °F57 %30.28 inNNE (20°)2.3 mph
1:00 AM3.2 °F-7.6 °F61 %30.28 in15.0 miNNE (30°)4.6 mphOvercast
2:00 AM-2.2 °F-11.2 °F66 %30.27 in15.0 miCalmOvercast
3:00 AM-2.2 °F-9.4 °F71 %30.26 in15.0 miNorth (360°)2.3 mphOvercast
4:00 AM-7.0 °F-11.0 °F72 %30.26 inWest (270°)3.5 mph
4:00 AM-2.2 °F-9.4 °F71 %30.26 in15.0 miNW (310°)2.3 mphOvercast
5:00 AM-4.0 °F-9.4 °F78 %30.28 in15.0 miSW (230°)3.5 mphOvercast
6:00 AM-4.0 °F-11.2 °F71 %30.27 in15.0 miSouth (170°)3.5 mphOvercast
7:00 AM-9.0 °F-13.0 °F73 %30.27 inWest (270°)1.2 mph
7:00 AM-2.2 °F-7.6 °F78 %30.27 in15.0 miSSW (210°)3.5 mphMostly Cloudy
8:00 AM-0.4 °F-5.8 °F78 %30.26 in15.0 miNNE (20°)3.5 mphMostly Cloudy
9:00 AM8.6 °F-2.2 °F62 %30.24 in15.0 miESE (120°)3.5 mphMostly Cloudy
10:00 AM6.0 °F-2.0 °F57 %30.24 inWest (280°)2.3 mph
10:00 AM8.6 °F-2.2 °F62 %30.23 in20.0 miCalmMostly Cloudy
11:00 AM15.8 °F1.4 °F53 %30.22 in20.0 miCalmMostly Cloudy
12:00 PM19.4 °F-0.4 °F42 %30.20 in20.0 miCalmMostly Cloudy
1:00 PM22.0 °F0.0 °F23 %30.15 inSouth (170°)1.2 mph
1:00 PM19.4 °F1.4 °F46 %30.16 in15.0 miEast (100°)2.3 mphMostly Cloudy
3:00 PM21.2 °F5.0 °F50 %30.10 in15.0 miNNE (30°)8.1 mphOvercast
4:00 PM22.0 °F4.0 °F31 %30.07 inENE (70°)3.5 mph
4:00 PM21.2 °F3.2 °F46 %30.06 in15.0 miENE (60°)6.9 mphOvercast
5:00 PM19.4 °F6.8 °F58 %30.02 in15.0 miNE (40°)6.9 mphMostly Cloudy
6:00 PM19.4 °F6.8 °F58 %29.97 in12.0 miNE (50°)6.9 mphOvercast
7:00 PM21.2 °F5.0 °F50 %29.93 in15.0 miNE (50°)11.5 mph18.4 mphOvercast
7:00 PM21.0 °F8.0 °F42 %29.93 inENE (60°)8.1 mph
8:00 PM21.2 °F8.6 °F58 %29.88 in15.0 miENE (60°)13.8 mphMostly Cloudy
9:00 PM23.0 °F8.6 °F54 %29.83 in15.0 miNE (50°)13.8 mph23.0 mphOvercast
10:00 PM25.0 °F9.0 °F37 %29.75 inENE (60°)13.8 mph
10:00 PM24.8 °F8.6 °F50 %29.75 in15.0 miENE (60°)21.9 mph29.9 mphOvercast
11:00 PM24.8 °F8.6 °F50 %29.70 in15.0 miENE (60°)18.4 mph32.2 mphOvercast
11:27 PM23.0 °F12.2 °F63 %29.68 in10.0 miENE (60°)24.2 mph31.1 mphSnowLight Snow
Hourly data recorded from CYQB, located miles away from Quebec City, Quebec







STORIES FROM OUR PARTNERS